TimeMDT,TemperatureF,Dew PointF,Humidity,Sea Level PressureIn,VisibilityMPH,Wind Direction,Wind SpeedMPH,Gust SpeedMPH,PrecipitationIn,Events,Conditions,WindDirDegrees,DateUTC
12:15 AM,41.0,23.0,49,30.05,10.0,Calm,Calm,-,N/A,,Scattered Clouds,0,2012-10-03 06:15:00
12:35 AM,41.0,23.0,49,30.04,10.0,Calm,Calm,-,N/A,,Mostly Cloudy,0,2012-10-03 06:35:00
12:55 AM,46.4,21.2,37,30.05,10.0,NE,3.5,-,N/A,,Scattered Clouds,50,2012-10-03 06:55:00
1:15 AM,41.0,23.0,49,30.05,10.0,NE,5.8,-,N/A,,Scattered Clouds,40,2012-10-03 07:15:00
1:35 AM,41.0,23.0,49,30.05,10.0,Calm,Calm,-,N/A,,Mostly Cloudy,0,2012-10-03 07:35:00
1:55 AM,41.0,23.0,49,30.05,10.0,NNE,8.1,-,N/A,,Mostly Cloudy,30,2012-10-03 07:55:00
2:15 AM,39.2,23.0,52,30.05,10.0,Calm,Calm,-,N/A,,Mostly Cloudy,0,2012-10-03 08:15:00
2:35 AM,41.0,23.0,49,30.05,10.0,Calm,Calm,-,N/A,,Mostly Cloudy,0,2012-10-03 08:35:00
2:55 AM,35.6,23.0,60,30.05,10.0,North,3.5,-,N/A,,Scattered Clouds,350,2012-10-03 08:55:00
3:15 AM,35.6,21.2,56,30.05,10.0,Calm,Calm,-,N/A,,Mostly Cloudy,0,2012-10-03 09:15:00
3:35 AM,33.8,21.2,60,30.05,10.0,Calm,Calm,-,N/A,,Scattered Clouds,0,2012-10-03 09:35:00
3:55 AM,32.0,21.2,64,30.04,10.0,Calm,Calm,-,N/A,,Clear,0,2012-10-03 09:55:00
4:15 AM,33.8,23.0,65,30.04,10.0,NNW,4.6,-,N/A,,Scattered Clouds,330,2012-10-03 10:15:00
4:35 AM,32.0,21.2,64,30.04,10.0,WNW,3.5,-,N/A,,Mostly Cloudy,300,2012-10-03 10:35:00
4:55 AM,32.0,23.0,69,30.05,10.0,Calm,Calm,-,N/A,,Scattered Clouds,0,2012-10-03 10:55:00
5:35 AM,32.0,21.2,64,30.06,10.0,West,4.6,-,N/A,,Scattered Clouds,280,2012-10-03 11:35:00
5:55 AM,30.2,21.2,69,30.06,10.0,Calm,Calm,-,N/A,,Clear,0,2012-10-03 11:55:00
6:15 AM,28.4,21.2,74,30.05,10.0,West,5.8,-,N/A,,Clear,260,2012-10-03 12:15:00
6:35 AM,28.4,21.2,74,30.06,10.0,WNW,4.6,-,N/A,,Clear,290,2012-10-03 12:35:00
6:55 AM,26.6,19.4,74,30.05,10.0,NNW,3.5,-,N/A,,Clear,340,2012-10-03 12:55:00
7:15 AM,26.6,19.4,74,30.05,10.0,WNW,4.6,-,N/A,,Clear,300,2012-10-03 13:15:00
7:35 AM,26.6,19.4,74,30.05,10.0,WNW,4.6,-,N/A,,Clear,300,2012-10-03 13:35:00
7:55 AM,26.6,21.2,80,30.06,10.0,NW,4.6,-,N/A,,Clear,310,2012-10-03 13:55:00
8:15 AM,32.0,21.2,64,30.07,10.0,WNW,4.6,-,N/A,,Clear,290,2012-10-03 14:15:00
8:35 AM,32.0,21.2,64,30.07,10.0,WNW,4.6,-,N/A,,Clear,300,2012-10-03 14:35:00
9:15 AM,41.0,23.0,49,30.06,10.0,WSW,3.5,-,N/A,,Clear,250,2012-10-03 15:15:00
9:35 AM,46.4,19.4,34,30.06,10.0,Calm,Calm,-,N/A,,Clear,0,2012-10-03 15:35:00
9:55 AM,50.0,19.4,30,30.07,10.0,NNW,6.9,-,N/A,,Clear,340,2012-10-03 15:55:00
10:15 AM,53.6,10.4,18,30.07,10.0,NW,6.9,-,N/A,,Clear,310,2012-10-03 16:15:00
10:35 AM,55.4,8.6,15,30.07,10.0,West,15.0,20.7,N/A,,Clear,280,2012-10-03 16:35:00
10:55 AM,55.4,6.8,14,30.08,10.0,WNW,19.6,27.6,N/A,,Clear,290,2012-10-03 16:55:00
11:15 AM,55.4,8.6,15,30.08,10.0,West,15.0,28.8,N/A,,Clear,280,2012-10-03 17:15:00
11:35 AM,55.4,6.8,14,30.08,10.0,WNW,17.3,24.2,N/A,,Clear,290,2012-10-03 17:35:00
11:55 AM,55.4,6.8,14,30.08,10.0,WSW,13.8,28.8,N/A,,Clear,250,2012-10-03 17:55:00
12:15 PM,55.4,5.0,13,30.08,10.0,West,17.3,23.0,N/A,,Clear,280,2012-10-03 18:15:00
12:35 PM,57.2,5.0,12,30.08,10.0,West,18.4,26.5,N/A,,Clear,280,2012-10-03 18:35:00
12:55 PM,57.2,5.0,12,30.09,10.0,WNW,15.0,29.9,N/A,,Clear,290,2012-10-03 18:55:00
1:15 PM,55.4,5.0,13,30.09,10.0,WNW,15.0,26.5,N/A,,Clear,300,2012-10-03 19:15:00
1:35 PM,55.4,5.0,13,30.09,10.0,WNW,20.7,27.6,N/A,,Clear,290,2012-10-03 19:35:00
1:55 PM,55.4,5.0,13,30.09,10.0,NW,20.7,28.8,N/A,,Clear,310,2012-10-03 19:55:00
2:15 PM,55.4,6.8,14,30.10,10.0,WNW,25.3,32.2,N/A,,Clear,290,2012-10-03 20:15:00
2:35 PM,55.4,8.6,15,30.11,10.0,WNW,23.0,29.9,N/A,,Clear,290,2012-10-03 20:35:00
2:55 PM,55.4,8.6,15,30.11,10.0,WNW,24.2,31.1,N/A,,Clear,290,2012-10-03 20:55:00
3:15 PM,55.4,10.4,17,30.11,10.0,West,24.2,35.7,N/A,,Clear,270,2012-10-03 21:15:00
3:35 PM,53.6,15.8,22,30.13,10.0,NW,21.9,29.9,N/A,,Clear,310,2012-10-03 21:35:00
3:55 PM,53.6,15.8,22,30.13,10.0,NW,19.6,27.6,N/A,,Clear,310,2012-10-03 21:55:00
4:15 PM,53.6,15.8,22,30.14,10.0,NW,19.6,29.9,N/A,,Clear,310,2012-10-03 22:15:00
4:35 PM,51.8,17.6,26,30.15,10.0,NW,20.7,28.8,N/A,,Clear,320,2012-10-03 22:35:00
4:55 PM,51.8,17.6,26,30.16,10.0,NW,20.7,28.8,N/A,,Clear,310,2012-10-03 22:55:00
5:15 PM,51.8,15.8,24,30.17,10.0,WNW,16.1,23.0,N/A,,Clear,300,2012-10-03 23:15:00
5:35 PM,50.0,15.8,26,30.19,10.0,NW,17.3,21.9,N/A,,Clear,310,2012-10-03 23:35:00
5:55 PM,50.0,14.0,24,30.19,10.0,NW,17.3,21.9,N/A,,Clear,310,2012-10-03 23:55:00
6:15 PM,48.2,14.0,25,30.20,10.0,NW,15.0,20.7,N/A,,Clear,310,2012-10-04 00:15:00
6:35 PM,46.4,12.2,25,30.21,10.0,NW,12.7,-,N/A,,Clear,310,2012-10-04 00:35:00
6:55 PM,42.8,12.2,29,30.21,10.0,WNW,10.4,-,N/A,,Clear,290,2012-10-04 00:55:00
7:15 PM,41.0,10.4,29,30.21,10.0,WNW,10.4,-,N/A,,Clear,300,2012-10-04 01:15:00
7:35 PM,37.4,10.4,33,30.22,10.0,WNW,4.6,-,N/A,,Clear,300,2012-10-04 01:35:00
7:55 PM,35.6,10.4,35,30.23,10.0,WNW,5.8,-,N/A,,Clear,300,2012-10-04 01:55:00
8:15 PM,33.8,10.4,38,30.24,10.0,West,11.5,-,N/A,,Clear,280,2012-10-04 02:15:00
8:35 PM,33.8,8.6,35,30.24,10.0,West,8.1,-,N/A,,Clear,260,2012-10-04 02:35:00
8:55 PM,32.0,10.4,41,30.25,10.0,NNW,5.8,-,N/A,,Clear,330,2012-10-04 02:55:00
9:15 PM,32.0,6.8,35,30.25,10.0,NW,6.9,-,N/A,,Clear,320,2012-10-04 03:15:00
9:35 PM,32.0,8.6,38,30.26,10.0,NNW,4.6,-,N/A,,Clear,330,2012-10-04 03:35:00
9:55 PM,30.2,8.6,40,30.26,10.0,NNW,6.9,-,N/A,,Clear,330,2012-10-04 03:55:00
10:15 PM,28.4,8.6,43,30.26,10.0,West,3.5,-,N/A,,Clear,270,2012-10-04 04:15:00
10:35 PM,30.2,10.4,44,30.27,10.0,Calm,Calm,-,N/A,,Clear,0,2012-10-04 04:35:00
10:55 PM,28.4,8.6,43,30.28,10.0,SE,4.6,-,N/A,,Clear,140,2012-10-04 04:55:00
11:15 PM,30.2,8.6,40,30.29,10.0,West,5.8,-,N/A,,Clear,260,2012-10-04 05:15:00
11:35 PM,32.0,10.4,41,30.29,10.0,South,4.6,-,N/A,,Clear,190,2012-10-04 05:35:00
11:55 PM,30.2,14.0,51,30.29,10.0,Calm,Calm,-,N/A,,Clear,0,2012-10-04 05:55:00